Terminal Aerodrome Forecast
Issued by NWS

Home | Current Version | Previous Version | Text Only | Print | Product List | Glossary On
Versions: 1 2 3 4 5 6 7 8 9 10 11 12 13 14 15 16 17 18 19 20 21 22 23 24 25 26 27 28 29 30 31 32 33 34 35 36 37 38 39 40 41 42 43 44 45 46 47 48
000
FTUS45 KBOU 281722
TAFBJC
TAF
KBJC 281722Z 2818/2918 15007KT P6SM BKN200
     FM282000 VRB06KT P6SM BKN200
     FM282300 25010KT P6SM BKN200
     FM290200 23007KT P6SM BKN200=

USA.gov is the U.S. government's official web portal to all federal, state and local government web resources and services.